TimeEDT,TemperatureF,Dew PointF,Humidity,Sea Level PressureIn,VisibilityMPH,Wind Direction,Wind SpeedMPH,Gust SpeedMPH,PrecipitationIn,Events,Conditions,WindDirDegrees,DateUTC
12:53 AM,61.0,55.9,83,30.13,10.0,Calm,Calm,-,N/A,,Clear,0,2013-09-05 04:53:00
1:53 AM,57.9,55.9,93,30.13,10.0,Calm,Calm,-,N/A,,Clear,0,2013-09-05 05:53:00
2:53 AM,60.1,55.9,86,30.12,10.0,SSW,3.5,-,N/A,,Clear,200,2013-09-05 06:53:00
3:53 AM,60.1,55.9,86,30.12,10.0,South,3.5,-,N/A,,Clear,190,2013-09-05 07:53:00
4:53 AM,60.1,55.9,86,30.12,10.0,SSW,4.6,-,N/A,,Clear,200,2013-09-05 08:53:00
5:53 AM,61.0,55.9,83,30.12,10.0,Calm,Calm,-,N/A,,Clear,0,2013-09-05 09:53:00
6:53 AM,60.1,55.9,86,30.13,10.0,Calm,Calm,-,N/A,,Clear,0,2013-09-05 10:53:00
7:53 AM,61.0,57.0,87,30.14,10.0,Variable,3.5,-,N/A,,Clear,0,2013-09-05 11:53:00
8:53 AM,63.0,57.9,84,30.16,10.0,Variable,3.5,-,N/A,,Mostly Cloudy,0,2013-09-05 12:53:00
9:53 AM,64.0,57.9,80,30.17,10.0,SW,4.6,-,N/A,,Overcast,220,2013-09-05 13:53:00
10:53 AM,66.0,59.0,78,30.18,10.0,Calm,Calm,-,N/A,,Overcast,0,2013-09-05 14:53:00
11:05 AM,66.2,59.0,78,30.18,10.0,WNW,4.6,-,N/A,,Overcast,290,2013-09-05 15:05:00
11:53 AM,70.0,61.0,73,30.17,10.0,West,4.6,-,N/A,,Mostly Cloudy,280,2013-09-05 15:53:00
12:13 PM,71.6,62.6,73,30.19,10.0,Variable,3.5,-,N/A,,Mostly Cloudy,0,2013-09-05 16:13:00
12:20 PM,71.6,60.8,69,30.19,10.0,Calm,Calm,-,N/A,,Mostly Cloudy,0,2013-09-05 16:20:00
12:27 PM,71.6,60.8,69,30.18,10.0,NNW,4.6,-,N/A,,Mostly Cloudy,340,2013-09-05 16:27:00
12:46 PM,71.6,60.8,69,30.18,10.0,Variable,4.6,-,N/A,,Scattered Clouds,0,2013-09-05 16:46:00
12:53 PM,75.0,60.1,60,30.16,10.0,Variable,4.6,-,N/A,,Scattered Clouds,0,2013-09-05 16:53:00
1:53 PM,73.9,55.9,53,30.15,10.0,NW,5.8,-,N/A,,Clear,320,2013-09-05 17:53:00
2:53 PM,75.9,55.0,48,30.14,10.0,Variable,5.8,-,N/A,,Partly Cloudy,0,2013-09-05 18:53:00
3:53 PM,75.9,54.0,46,30.13,10.0,Variable,5.8,-,N/A,,Clear,0,2013-09-05 19:53:00
4:53 PM,73.9,55.0,52,30.14,10.0,NNW,3.5,-,N/A,,Partly Cloudy,330,2013-09-05 20:53:00
5:53 PM,73.9,54.0,50,30.14,10.0,NNW,4.6,-,N/A,,Clear,330,2013-09-05 21:53:00
6:53 PM,72.0,54.0,53,30.15,10.0,NNW,4.6,-,N/A,,Clear,340,2013-09-05 22:53:00
7:53 PM,68.0,55.0,63,30.16,10.0,Calm,Calm,-,N/A,,Clear,0,2013-09-05 23:53:00
8:53 PM,66.0,55.0,68,30.17,10.0,Calm,Calm,-,N/A,,Clear,0,2013-09-06 00:53:00
9:53 PM,63.0,52.0,67,30.19,10.0,North,3.5,-,N/A,,Clear,350,2013-09-06 01:53:00
10:53 PM,60.1,53.1,78,30.21,10.0,NNE,4.6,-,N/A,,Clear,20,2013-09-06 02:53:00
11:53 PM,57.9,48.9,72,30.21,10.0,North,4.6,-,N/A,,Clear,350,2013-09-06 03:53:00